Location: Exeidioux
(45.6312°N, 1.6819°E)
Time: 16:15:01
(UTC+00:00)

Meteor 2-12 Rocket - Pass Details

Date: 03 March 2021
Orbit: 936 x 956 km, 82.5° (Epoch: 11 April)

Event Time Altitude Azimuth Distance (km) Brightness Sun altitude
Rises 18:48:56 0° 183° (S) 3,584 7.5 -12.3°
Reaches altitude 10° 18:51:24 10° 182° (S) 2,645 6.8 -12.7°
Maximum altitude 18:57:26 80° 97° (E) 960 4.4 -13.8°
Drops below altitude 10° 19:03:34 10° 11° (N) 2,676 6.8 -14.9°
Sets 19:06:04 0° 10° (N) 3,629 7.5 -15.3°
